Regional Weather Roundup
Issued by NWS

Home | Current Version | Previous Version | Graphics & Text | Print | Product List | Glossary On
Versions: 1 2 3 4 5 6 7 8 9 10 11 12 13 14 15 16 17 18 19 20 21 22 23 24 25 26 27 28 29 30 31 32 33 34 35 36 37 38 39 40 41 42 43 44 45 46 47 48 49 50
000
ASUS45 KTFX 010504
RWRMT
MONTANA HOURLY WEATHER ROUNDUP
NATIONAL WEATHER SERVICE GREAT FALLS MT
1104 PM MDT THU JUL 31 2014

NOTE: "FAIR" INDICATES FEW OR NO CLOUDS BELOW 12000 FEET WITH NO
SIGNIFICANT WEATHER AND/OR OBSTRUCTIONS TO VISIBILITY.

* THESE STATIONS ARE NOT UNDER NWS QUALITY CONTROL. THEY DO NOT
   REPORT WEATHER SUCH AS PRECIPITATION OR FOG.

MTZ001>007-043-010600-
WEST OF THE DIVIDE
CITY           SKY/WX    TMP DP  RH WIND       PRES   REMARKS
KALISPELL      PTCLDY    64  52  65 NW3       30.04R
MISSOULA       PTCLDY    82  39  22 E9        30.09R
BUTTE          CLOUDY    68  45  44 CALM      30.28S
MULLAN PASS    MOCLDY    70  30  23 N6        30.28S
* ESSEX        N/A      N/A N/A N/A N/A        N/A
* LINCOLN      N/A       59  53  81 NW3G8      N/A
* LOOKOUT PASS N/A       68  40  36 N2         N/A
* POLSON       N/A       71  39  31 N/A        N/A
* RONAN APT    PTCLDY    70  54  57 N/A        N/A
* SEELEY LAKE  N/A       64  43  47 E1G6       N/A
* THOMP F APT  PTCLDY    57  45  64 N10G17     N/A
$$

MTZ008-052>055-010600-
SOUTHWEST MONTANA
CITY           SKY/WX    TMP DP  RH WIND       PRES   REMARKS
BOZEMAN        PTCLDY    70  41  35 S10       30.18S
DILLON         CLOUDY    66  45  47 SW6       30.24R
W YELLOWSTONE  CLOUDY    61  41  48 NE6       30.37F
* THREE FORKS  MOCLDY    70  48  46 N/A        N/A
* BOULDER HILL N/A       65  37  36 N/A        N/A
* MONIDA PASS  N/A       53  46  77 SW2        N/A
* RAYNOLDS PAS N/A       57  36  46 SE6        N/A
* WHITEHALL    N/A       74  38  27 NE3G9      N/A
* WISE RIVER   N/A       70  40  34 NW7G14     N/A
$$

MTZ009>010-012-014-046-048-049-054-010600-
EAST SLOPES AND CENTRAL MONTANA
CITY           SKY/WX    TMP DP  RH WIND       PRES   REMARKS
CUT BANK       CLEAR     66  48  52 CALM      30.14R
GREAT FALLS    MOCLDY    64  45  50 W6        30.13R
HELENA         MOCLDY    73  39  29 W7        30.16R
MALMSTROM AFB  MOCLDY    68  41  38 S6        30.13R
* CONRAD       CLEAR     63  54  73 N/A        N/A
* DEARBORN     N/A       68  48  49 N/A        N/A
* EAST GLACIER N/A       58  51  78 NW4        N/A
* MONARCH      N/A       61  43  52 N/A        N/A
* PENDROY      N/A       64  48  56 W2         N/A
* SAINT MARY   N/A       57  55  93 SE2        N/A
* SWEET GRASS  N/A       74  56  54 N2         N/A
$$

MTZ011-013-016-021-035-040-045-047-050-051-010600-
NORTH CENTRAL MONTANA
CITY           SKY/WX    TMP DP  RH WIND       PRES   REMARKS
HAVRE          MOCLDY    66  46  49 S9        30.04R
LEWISTOWN      PTCLDY    72  43  35 E3        30.17R
* CHESTER      N/A       71  45  39 NE2        N/A
* DENTON       N/A       69  42  38 SW1        N/A
* GEYSER       N/A       66  42  42 SW9        N/A
* JUDITH GAP   N/A       67  47  49 VRB2       N/A
* LOMA         N/A       76  43  31 SE2        N/A
$$

MTZ017>020-022>027-061-062-010600-
NORTHEAST MONTANA
CITY           SKY/WX    TMP DP  RH WIND       PRES   REMARKS
GLASGOW        CLOUDY    79  48  34 NE5       30.00S
GLENDIVE       MOCLDY    77  43  30 NE6       30.02S
JORDAN         MOCLDY    86  36  17 NW7       30.00F
SIDNEY         PTCLDY    72  55  55 N7        30.03S
WOLF POINT     CLOUDY    73  54  51 NE3       30.00R
* BEAVER HILL  N/A       71  54  55 SE14       N/A
* CIRCLE       N/A       75  43  32 N/A        N/A
* LINDSAY DVD  N/A       70  43  38 NW7        N/A
* NAVAJO       N/A       67  58  73 E4         N/A
$$

MTZ028>042-056>058-010600-
SOUTHCENTRAL AND SOUTHEAST MONTANA
CITY           SKY/WX    TMP DP  RH WIND       PRES   REMARKS
BAKER          MOCLDY    66  46  49 E10       30.05S
BILLINGS       PTCLDY    79  39  24 N6        30.10R
LIVINGSTON     MOCLDY    75  43  32 SW14G22   30.19R
MILES CITY     PTCLDY    81  43  26 S10       30.02R
* LAUREL APT   PTCLDY    73  37  27 N/A        N/A
* ROUNDUP APT  PTCLDY    79  39  24 W14        N/A
* ALZADA       N/A       67  46  47 E6         N/A
* HYSHAM       N/A       78  40  26 N1         N/A
* LAME DEER    N/A       79  34  20 N/A        N/A
* REED POINT   N/A       77  46  33 W7         N/A
* ROSCOE HILL  N/A       70  40  34 SW5G12     N/A
$$

REGIONAL REPORTS...DAKOTAS
CITY           SKY/WX    TMP DP  RH WIND       PRES   REMARKS
WILLISTON      CLEAR     70  57  64 SE7       30.04R
DICKINSON      CLEAR     63  55  75 SE10      30.05R
CROSBY         N/A       61  61 100 E3        30.06S
TIOGA          CLEAR     57  57 100 E6        30.09S
WATFORD CITY   CLEAR     64  57  78 E9        30.03S
BISMARCK       CLEAR     68  57  68 NE6       30.05R
GRAND FORKS    CLEAR     64  61  90 CALM      30.01R
FARGO          CLEAR     70  61  73 S3        30.01R
BUFFALO SD     CLEAR     64  46  52 S3        30.02S
RAPID CITY     PTCLDY    61  52  72 W8        30.13S
$$

REGIONAL REPORTS...WYOMING/IDAHO/WASHINGTON
CITY           SKY/WX    TMP DP  RH WIND       PRES   REMARKS
GILLETTE       PTCLDY    68  45  44 S10       30.16R
SHERIDAN       CLEAR     63  45  52 VRB3      30.11S
CODY           PTCLDY    70  39  32 W3        30.22R
YELLOWSTONE LA MOCLDY    55  43  64 VRB5      30.45F
SALMON         CLOUDY    73  48  41 S7        30.13F
MULLAN PASS    MOCLDY    70  30  23 N6        30.28S
SAND POINT     PTCLDY    64  50  61 CALM      30.00R
SPOKANE        MOCLDY    82  34  18 SW9       30.01R

$$



USA.gov is the U.S. government's official web portal to all federal, state and local government web resources and services.